Weather History for KBNA - June, 2013

Change the Weather History Date:

Friday, June 7, 2013

  Actual Average Record
Temperature  
Mean Temperature 74 °F 74 °F  
Max Temperature 82 °F 84 °F 99 °F (1933)
Min Temperature 66 °F 63 °F 47 °F (1894)
Degree Days  
Heating Degree Days 0 0  
Month to date heating degree days 0 0  
Since 1 June heating degree days 0 0  
Since 1 July heating degree days 3532 3685  
Cooling Degree Days 9 9  
Month to date cooling degree days 58 57  
Year to date cooling degree days 265 236  
Since 1 June cooling degree days 58 57  
Growing Degree Days 24 (Base 50)    
Moisture  
Dew Point 65 °F    
Average Humidity 72    
Maximum Humidity 93    
Minimum Humidity 51    
Precipitation  
Precipitation 0.16 in 0.15 in 2.26 in (1974)
Month to date precipitation 1.07 1.06  
Year to date precipitation 25.51 22.36  
Snow  
Snow 0.00 in 0.00 in 0.00 in (2002)
Month to date snowfall 0.0  
Since 1 June snowfall 0.0  
Since 1 July snowfall 1.3 6.3  
Snow Depth -    
Sea Level Pressure  
Sea Level Pressure 29.80 in    
Wind  
Wind Speed 3 mph (WNW)    
Max Wind Speed 16 mph    
Max Gust Speed 21 mph    
Visibility 7 miles    
Events Rain , Thunderstorm    
T = Trace of Precipitation, MM = Missing Value Source: NWS Daily Summary

Daily Weather History Graph

Daily Weather History Graph

Search for Another Location

Airport or City:

Trip Planner

Search our weather history database for the weather conditions in past years. The results will help you decide how hot, cold, wet, or windy it might be!

Date:

Astronomy

Jun. 07, 2013 Rise Set
Actual Time 5:29 AM CDT 8:02 PM CDT
Civil Twilight 4:59 AM CDT 8:32 PM CDT
Nautical Twilight 4:22 AM CDT 9:09 PM CDT
Astronomical Twilight 3:40 AM CDT 9:50 PM CDT
Moon 4:49 AM CDT (6/7) 7:17 PM CDT (6/7)
Length of Visible Light 15h 32m
Length of Day
14h 32m
Waning Crescent, 1% of the Moon is Illuminated
Jun 7
Waning Crescent
Jun 8
New
Jun 16
First Quarter
Jun 23
Full
Jun 29
Last Quarter

Hourly Weather History & Observations

Time (CDT) Temp. Heat Index Dew Point Humidity Pressure Visibility Wind Dir Wind Speed Gust Speed Precip Events Conditions
12:53 AM 70.0 °F - 64.9 °F 84% 29.78 in 10.0 mi Calm Calm - N/A   Scattered Clouds
1:53 AM 66.0 °F - 64.0 °F 93% 29.76 in 9.0 mi Calm Calm - N/A   Scattered Clouds
2:53 AM 66.9 °F - 64.9 °F 93% 29.76 in 8.0 mi Calm Calm - N/A   Mostly Cloudy
3:53 AM 66.9 °F - 64.9 °F 93% 29.75 in 7.0 mi Calm Calm - N/A   Scattered Clouds
4:53 AM 66.0 °F - 64.0 °F 93% 29.76 in 7.0 mi Calm Calm - N/A   Mostly Cloudy
5:53 AM 68.0 °F - 64.9 °F 90% 29.76 in 7.0 mi NNW 3.5 mph - N/A   Overcast
6:53 AM 69.1 °F - 64.0 °F 84% 29.77 in 6.0 mi NW 5.8 mph - N/A   Haze
7:53 AM 71.1 °F - 64.9 °F 81% 29.78 in 6.0 mi North 5.8 mph - N/A   Haze
8:53 AM 73.0 °F - 64.9 °F 76% 29.80 in 7.0 mi North 3.5 mph - N/A   Overcast
9:53 AM 75.0 °F - 64.9 °F 71% 29.80 in 8.0 mi Calm Calm - N/A   Overcast
10:53 AM 75.9 °F - 64.0 °F 67% 29.81 in 9.0 mi NW 5.8 mph - N/A   Overcast
11:53 AM 78.1 °F - 66.0 °F 66% 29.80 in 9.0 mi WNW 3.5 mph - N/A   Overcast
12:53 PM 80.1 °F 81.2 °F 62.1 °F 54% 29.79 in 10.0 mi North 4.6 mph - N/A   Overcast
1:53 PM 82.0 °F 83.1 °F 63.0 °F 52% 29.77 in 10.0 mi WNW 3.5 mph - N/A   Overcast
2:53 PM 77.0 °F - 63.0 °F 62% 29.78 in 10.0 mi North 4.6 mph - N/A   Overcast
3:05 PM 77.0 °F - 64.4 °F 65% 29.79 in 10.0 mi North 4.6 mph - N/A Thunderstorm Thunderstorm
3:40 PM 75.2 °F - 64.4 °F 69% 29.80 in 9.0 mi SW 4.6 mph - N/A   Overcast
3:53 PM 75.9 °F - 64.9 °F 69% 29.78 in 9.0 mi WSW 8.1 mph - N/A   Overcast
4:09 PM 73.4 °F - 66.2 °F 78% 29.80 in 7.0 mi NW 8.1 mph - N/A   Overcast
4:21 PM 69.8 °F - 64.4 °F 83% 29.81 in 1.8 mi North 11.5 mph 20.7 mph 0.02 in Rain Heavy Rain
4:32 PM 69.8 °F - 64.4 °F 83% 29.81 in 7.0 mi North 5.8 mph - 0.25 in Rain Light Rain
4:43 PM 71.6 °F - 64.4 °F 78% 29.82 in 10.0 mi North 3.5 mph - 0.25 in   Overcast
4:53 PM 70.0 °F - 66.0 °F 87% 29.81 in 7.0 mi ESE 5.8 mph - 0.25 in   Mostly Cloudy
5:10 PM 69.8 °F - 66.2 °F 88% 29.82 in 5.0 mi SSE 3.5 mph - N/A Thunderstorm Mostly Cloudy
5:53 PM 68.0 °F - 64.9 °F 90% 29.82 in 3.0 mi SSW 5.8 mph - 0.01 in Rain , Thunderstorm Light Thunderstorms and Rain
6:15 PM 68.0 °F - 64.4 °F 88% 29.83 in 4.0 mi South 3.5 mph - 0.01 in Rain Light Rain
6:53 PM 69.1 °F - 64.9 °F 87% 29.82 in 5.0 mi Calm Calm - 0.01 in   Overcast
7:31 PM 68.0 °F - 66.2 °F 94% 29.84 in 2.5 mi WSW 3.5 mph - N/A   Overcast
7:53 PM 68.0 °F - 64.9 °F 90% 29.83 in 3.0 mi SW 3.5 mph - N/A   Overcast
8:53 PM 68.0 °F - 66.0 °F 93% 29.84 in 3.0 mi South 3.5 mph - N/A   Overcast
9:53 PM 68.0 °F - 64.9 °F 90% 29.86 in 4.0 mi WNW 4.6 mph - N/A   Overcast
10:53 PM 68.0 °F - 66.0 °F 93% 29.87 in 3.0 mi WNW 3.5 mph - N/A   Overcast
11:15 PM 66.2 °F - 66.2 °F 100% 29.88 in 2.5 mi Calm Calm - N/A   Overcast
11:53 PM 68.0 °F - 66.0 °F 93% 29.87 in 2.5 mi Calm Calm - N/A   Mostly Cloudy